• en Suisse
  • Liste des pays
  • À 7 jours
  • Température de l'eau
  • Carte satellitaire
  • Carte météo
  • Widgets météo
  • user-avatar
    Se connecter

    Météo par heure à Bakhtaran

    Ce jour, 21 Octobre, Dimanche

    Heure Température Précipitation Vent Pression Humidité
    00:00 +15°C° 0 mm 1 m/s 639 mmHg 51%
    01:00 +15°C° 0 mm 1 m/s 639 mmHg 52%
    02:00 +14°C° 0 mm 1 m/s 639 mmHg 53%
    03:00 +14°C° 0 mm 1 m/s 638 mmHg 54%
    04:00 +14°C° 0 mm 1 m/s 638 mmHg 55%
    05:00 +13°C° 0 mm 1 m/s 638 mmHg 55%
    06:00 +13°C° 0 mm 1 m/s 638 mmHg 55%
    07:00 +15°C° 0 mm 1 m/s 639 mmHg 49%
    08:00 +17°C° 0 mm 2 m/s 640 mmHg 44%
    09:00 +19°C° 0 mm 2 m/s 640 mmHg 38%
    10:00 +20°C° 0 mm 2 m/s 640 mmHg 36%
    11:00 +21°C° 0 mm 2 m/s 641 mmHg 34%
    12:00 +22°C° 0 mm 3 m/s 641 mmHg 31%
    13:00 +22°C° 0 mm 3 m/s 641 mmHg 30%
    14:00 +22°C° 0 mm 3 m/s 641 mmHg 29%
    15:00 +24°C° 0 mm 3 m/s 641 mmHg 29%
    16:00 +21°C° 0.2 mm 2 m/s 640 mmHg 33%
    17:00 +20°C° 0.2 mm 2 m/s 640 mmHg 36%
    18:00 +20°C° 0.2 mm 1 m/s 640 mmHg 40%
    19:00 +19°C° 0.1 mm 1 m/s 640 mmHg 43%
    20:00 +19°C° 0.1 mm 1 m/s 640 mmHg 46%
    21:00 +16°C° 0.1 mm 0 m/s 640 mmHg 49%
    22:00 +18°C° 0 mm 1 m/s 640 mmHg 49%
    23:00 +18°C° 0 mm 1 m/s 640 mmHg 49%

    Demain, 22 Octobre, Lundi

    Heure Température Précipitation Vent Pression Humidité
    00:00 +18°C° 0 mm 1 m/s 640 mmHg 48%
    01:00 +17°C° 0 mm 2 m/s 640 mmHg 50%
    02:00 +16°C° 0 mm 2 m/s 640 mmHg 52%
    03:00 +16°C° 0 mm 3 m/s 639 mmHg 54%
    04:00 +15°C° 0 mm 2 m/s 639 mmHg 58%
    05:00 +14°C° 0 mm 2 m/s 639 mmHg 61%
    06:00 +14°C° 0 mm 1 m/s 639 mmHg 64%
    07:00 +15°C° 0 mm 2 m/s 640 mmHg 59%
    08:00 +16°C° 0 mm 2 m/s 640 mmHg 54%
    09:00 +18°C° 0 mm 3 m/s 641 mmHg 49%
    10:00 +19°C° 0 mm 3 m/s 641 mmHg 46%
    11:00 +20°C° 0 mm 3 m/s 641 mmHg 42%
    12:00 +21°C° 0 mm 3 m/s 641 mmHg 38%
    13:00 +21°C° 0 mm 3 m/s 641 mmHg 37%
    14:00 +22°C° 0 mm 3 m/s 641 mmHg 36%
    15:00 +22°C° 0 mm 3 m/s 641 mmHg 35%
    16:00 +21°C° 0 mm 3 m/s 641 mmHg 39%
    17:00 +20°C° 0 mm 2 m/s 640 mmHg 43%
    18:00 +18°C° 0 mm 2 m/s 640 mmHg 47%
    19:00 +19°C° 0 mm 1 m/s 640 mmHg 50%
    20:00 +18°C° 0 mm 1 m/s 640 mmHg 54%
    21:00 +18°C° 0 mm 1 m/s 640 mmHg 57%
    22:00 +16°C° 0 mm 1 m/s 640 mmHg 60%
    23:00 +16°C° 0 mm 1 m/s 640 mmHg 63%

    Après-demain, 23 Octobre, Mardi

    Heure Température Précipitation Vent Pression Humidité
    00:00 +15°C° 0 mm 1 m/s 640 mmHg 65%
    01:00 +15°C° 0 mm 1 m/s 640 mmHg 68%
    02:00 +14°C° 0 mm 1 m/s 639 mmHg 70%
    03:00 +14°C° 0 mm 1 m/s 639 mmHg 73%
    04:00 +14°C° 0 mm 1 m/s 639 mmHg 74%
    05:00 +13°C° 0 mm 1 m/s 639 mmHg 76%
    06:00 +13°C° 0 mm 1 m/s 639 mmHg 77%
    07:00 +15°C° 0 mm 1 m/s 640 mmHg 69%
    08:00 +16°C° 0 mm 1 m/s 641 mmHg 61%
    09:00 +19°C° 0 mm 1 m/s 641 mmHg 53%
    10:00 +19°C° 0 mm 2 m/s 641 mmHg 47%
    11:00 +21°C° 0 mm 2 m/s 641 mmHg 41%
    12:00 +22°C° 0 mm 3 m/s 641 mmHg 35%
    13:00 +22°C° 0 mm 3 m/s 641 mmHg 34%
    14:00 +22°C° 0 mm 4 m/s 641 mmHg 34%
    15:00 +22°C° 0 mm 4 m/s 641 mmHg 33%
    16:00 +21°C° 0 mm 4 m/s 640 mmHg 37%
    17:00 +20°C° 0 mm 3 m/s 640 mmHg 40%
    18:00 +19°C° 0 mm 3 m/s 640 mmHg 44%
    19:00 +19°C° 0 mm 2 m/s 640 mmHg 48%
    20:00 +18°C° 0 mm 2 m/s 640 mmHg 52%
    21:00 +18°C° 0 mm 1 m/s 640 mmHg 57%
    22:00 +16°C° 0 mm 1 m/s 639 mmHg 60%
    23:00 +16°C° 0 mm 1 m/s 639 mmHg 63%

    24 Octobre, Mercredi

    Heure Température Précipitation Vent Pression Humidité
    00:00 +15°C° 0 mm 1 m/s 639 mmHg 67%
    01:00 +14°C° 0 mm 0 m/s 639 mmHg 69%
    02:00 +13°C° 0 mm 0 m/s 638 mmHg 71%
    03:00 +13°C° 0 mm 0 m/s 638 mmHg 73%
    04:00 +12°C° 0 mm 0 m/s 638 mmHg 74%
    05:00 +12°C° 0 mm 0 m/s 638 mmHg 75%
    06:00 +12°C° 0 mm 0 m/s 638 mmHg 76%
    07:00 +15°C° 0 mm 1 m/s 638 mmHg 67%
    08:00 +18°C° 0 mm 1 m/s 639 mmHg 58%
    09:00 +20°C° 0 mm 1 m/s 640 mmHg 49%
    10:00 +21°C° 0 mm 1 m/s 640 mmHg 43%
    11:00 +22°C° 0 mm 1 m/s 640 mmHg 37%
    12:00 +24°C° 0 mm 1 m/s 640 mmHg 31%
    13:00 +24°C° 0 mm 2 m/s 639 mmHg 28%
    14:00 +25°C° 0 mm 2 m/s 639 mmHg 26%
    15:00 +25°C° 0 mm 3 m/s 639 mmHg 24%
    16:00 +24°C° 0 mm 3 m/s 639 mmHg 26%
    17:00 +23°C° 0 mm 2 m/s 638 mmHg 28%
    18:00 +21°C° 0 mm 2 m/s 638 mmHg 30%
    19:00 +20°C° 0 mm 2 m/s 638 mmHg 32%
    20:00 +20°C° 0 mm 1 m/s 638 mmHg 34%
    21:00 +20°C° 0 mm 1 m/s 638 mmHg 36%
    22:00 +19°C° 0 mm 1 m/s 638 mmHg 38%
    23:00 +19°C° 0 mm 1 m/s 637 mmHg 41%

    25 Octobre, Jeudi

    Heure Température Précipitation Vent Pression Humidité
    00:00 +18°C° 0 mm 1 m/s 637 mmHg 43%
    01:00 +18°C° 0 mm 1 m/s 637 mmHg 44%
    02:00 +18°C° 0 mm 1 m/s 637 mmHg 46%
    03:00 +16°C° 0 mm 1 m/s 636 mmHg 48%
    04:00 +16°C° 0 mm 2 m/s 637 mmHg 50%
    05:00 +16°C° 0 mm 2 m/s 637 mmHg 52%
    06:00 +16°C° 0 mm 2 m/s 637 mmHg 54%
    07:00 +17°C° 0 mm 3 m/s 637 mmHg 49%
    08:00 +19°C° 0 mm 3 m/s 638 mmHg 44%
    09:00 +20°C° 0 mm 4 m/s 638 mmHg 38%
    10:00 +22°C° 0 mm 5 m/s 638 mmHg 35%
    11:00 +23°C° 0 mm 6 m/s 638 mmHg 33%
    12:00 +24°C° 0 mm 7 m/s 638 mmHg 30%
    13:00 +24°C° 0 mm 7 m/s 638 mmHg 30%
    14:00 +24°C° 0 mm 8 m/s 637 mmHg 29%
    15:00 +24°C° 0 mm 8 m/s 637 mmHg 29%
    16:00 +23°C° 0 mm 7 m/s 637 mmHg 33%
    17:00 +22°C° 0 mm 6 m/s 637 mmHg 37%
    18:00 +21°C° 0 mm 5 m/s 636 mmHg 42%
    19:00 +20°C° 0.2 mm 5 m/s 636 mmHg 46%
    20:00 +19°C° 0.2 mm 4 m/s 637 mmHg 50%
    21:00 +18°C° 0.2 mm 4 m/s 637 mmHg 54%
    22:00 +18°C° 0.5 mm 4 m/s 636 mmHg 58%
    23:00 +17°C° 0.5 mm 4 m/s 636 mmHg 62%

    26 Octobre, Vendredi

    Heure Température Précipitation Vent Pression Humidité
    00:00 +17°C° 0.5 mm 4 m/s 636 mmHg 66%
    01:00 +15°C° 0.5 mm 4 m/s 636 mmHg 70%
    02:00 +15°C° 0.5 mm 4 m/s 636 mmHg 73%
    03:00 +16°C° 0.5 mm 3 m/s 636 mmHg 76%
    04:00 +16°C° 0.8 mm 3 m/s 636 mmHg 77%
    05:00 +14°C° 0.8 mm 3 m/s 636 mmHg 78%
    06:00 +14°C° 0.8 mm 3 m/s 636 mmHg 79%
    07:00 +16°C° 1.3 mm 3 m/s 637 mmHg 77%
    08:00 +15°C° 1.3 mm 4 m/s 637 mmHg 75%
    09:00 +16°C° 1.3 mm 5 m/s 638 mmHg 72%
    10:00 +17°C° 1.6 mm 5 m/s 637 mmHg 68%
    11:00 +19°C° 1.6 mm 5 m/s 637 mmHg 64%
    12:00 +20°C° 1.6 mm 6 m/s 637 mmHg 60%
    13:00 +20°C° 0.9 mm 6 m/s 637 mmHg 57%
    14:00 +20°C° 0.9 mm 7 m/s 637 mmHg 54%
    15:00 +21°C° 0.9 mm 7 m/s 637 mmHg 51%
    16:00 +20°C° 1 mm 7 m/s 637 mmHg 57%
    17:00 +19°C° 1 mm 6 m/s 637 mmHg 62%
    18:00 +17°C° 1 mm 6 m/s 637 mmHg 68%
    19:00 +17°C° 1.4 mm 5 m/s 637 mmHg 70%
    20:00 +17°C° 1.4 mm 4 m/s 638 mmHg 73%
    21:00 +17°C° 1.4 mm 3 m/s 638 mmHg 76%
    22:00 +16°C° 1.1 mm 3 m/s 638 mmHg 76%
    23:00 +16°C° 1.1 mm 3 m/s 638 mmHg 77%
    Voir plus